timestamp,wind_dir_avg,wind_spd_max_dir,wind_spd_avg,wind_spd_gust,battery_voltage,lat,long
2019-01-20 00:00:00+00:00,325.0,326.0,7.5,8.48,,47.59359,-54.27349
2019-01-20 00:10:00+00:00,323.0,321.0,7.29,8.38,,47.59359,-54.27349
2019-01-20 00:20:00+00:00,315.0,316.0,6.12,7.01,,47.59359,-54.27349
2019-01-20 00:30:00+00:00,316.0,310.0,6.14,7.31,,47.59359,-54.27349
2019-01-20 00:40:00+00:00,324.0,322.0,6.57,8.45,,47.59359,-54.27349
2019-01-20 00:50:00+00:00,325.0,323.0,7.16,9.16,,47.59359,-54.27349
2019-01-20 01:00:00+00:00,323.0,328.0,7.67,9.73,,47.59359,-54.27349
2019-01-20 01:10:00+00:00,314.0,314.0,5.76,7.38,,47.59359,-54.27349
2019-01-20 01:20:00+00:00,320.0,318.0,5.54,7.13,,47.59359,-54.27349
2019-01-20 01:30:00+00:00,326.0,324.0,7.08,9.07,,47.59359,-54.27349
2019-01-20 01:40:00+00:00,323.0,328.0,6.29,8.8,,47.59359,-54.27349
2019-01-20 01:50:00+00:00,322.0,326.0,5.75,7.9,,47.59359,-54.27349
2019-01-20 02:00:00+00:00,329.0,330.0,6.25,7.7,,47.59359,-54.27349
2019-01-20 02:10:00+00:00,325.0,312.0,6.53,9.41,,47.59359,-54.27349
2019-01-20 02:20:00+00:00,326.0,311.0,5.67,9.34,,47.59359,-54.27349
2019-01-20 02:30:00+00:00,328.0,332.0,5.67,7.56,,47.59359,-54.27349
2019-01-20 02:40:00+00:00,327.0,323.0,4.97,6.47,,47.59359,-54.27349
2019-01-20 02:50:00+00:00,321.0,327.0,5.9,7.12,,47.59359,-54.27349
2019-01-20 03:00:00+00:00,330.0,326.0,6.02,7.62,,47.59359,-54.27349
2019-01-20 03:10:00+00:00,328.0,323.0,5.58,6.75,,47.59359,-54.27349
2019-01-20 03:20:00+00:00,323.0,332.0,6.31,7.46,,47.59359,-54.27349
2019-01-20 03:30:00+00:00,324.0,315.0,5.18,6.47,,47.59359,-54.27349
2019-01-20 03:40:00+00:00,332.0,330.0,4.63,5.39,,47.59359,-54.27349
2019-01-20 03:50:00+00:00,324.0,317.0,4.84,6.27,,47.59359,-54.27349
2019-01-20 04:00:00+00:00,329.0,326.0,4.72,6.23,,47.59359,-54.27349
2019-01-20 04:10:00+00:00,327.0,325.0,4.62,6.01,,47.59359,-54.27349
2019-01-20 04:20:00+00:00,329.0,330.0,6.06,6.88,,47.59359,-54.27349
2019-01-20 04:30:00+00:00,320.0,324.0,6.15,7.01,,47.59359,-54.27349
2019-01-20 04:40:00+00:00,322.0,328.0,5.75,6.52,,47.59359,-54.27349
2019-01-20 04:50:00+00:00,314.0,316.0,4.68,6.01,,47.59359,-54.27349
2019-01-20 05:00:00+00:00,309.0,316.0,4.66,5.67,,47.59359,-54.27349
2019-01-20 05:10:00+00:00,322.0,320.0,4.65,6.48,,47.59359,-54.27349
2019-01-20 05:20:00+00:00,317.0,315.0,4.89,6.37,,47.59359,-54.27349
2019-01-20 05:30:00+00:00,322.0,323.0,5.6,6.68,,47.59359,-54.27349
2019-01-20 05:40:00+00:00,316.0,318.0,5.19,6.29,,47.59359,-54.27349
2019-01-20 05:50:00+00:00,320.0,321.0,5.3,6.33,,47.59359,-54.27349
2019-01-20 06:00:00+00:00,322.0,325.0,5.79,6.88,,47.59359,-54.27349
2019-01-20 06:10:00+00:00,319.0,313.0,4.96,6.36,,47.59359,-54.27349
2019-01-20 06:20:00+00:00,325.0,317.0,5.92,6.57,,47.59359,-54.27349
2019-01-20 06:30:00+00:00,318.0,322.0,5.34,6.46,,47.59359,-54.27349
2019-01-20 06:40:00+00:00,325.0,338.0,3.33,4.83,,47.59359,-54.27349
2019-01-20 06:50:00+00:00,330.0,320.0,4.58,6.12,,47.59359,-54.27349
2019-01-20 07:00:00+00:00,332.0,320.0,5.04,5.72,,47.59359,-54.27349
2019-01-20 07:10:00+00:00,312.0,312.0,4.79,6.13,,47.59359,-54.27349
2019-01-20 07:20:00+00:00,309.0,303.0,3.48,4.57,,47.59359,-54.27349
2019-01-20 07:30:00+00:00,356.0,349.0,4.62,5.39,,47.59359,-54.27349
2019-01-20 07:40:00+00:00,357.0,3.0,3.14,4.12,,47.59359,-54.27349
2019-01-20 07:50:00+00:00,2.0,7.0,4.45,5.53,,47.59359,-54.27349
2019-01-20 08:00:00+00:00,351.0,343.0,3.68,4.79,,47.59359,-54.27349
2019-01-20 08:10:00+00:00,0.0,356.0,4.15,5.38,,47.59359,-54.27349
2019-01-20 08:20:00+00:00,0.0,351.0,3.79,4.7,,47.59359,-54.27349
2019-01-20 08:30:00+00:00,7.0,7.0,4.41,5.46,,47.59359,-54.27349
2019-01-20 08:40:00+00:00,340.0,329.0,3.66,6.05,,47.59359,-54.27349
2019-01-20 08:50:00+00:00,359.0,352.0,3.9,5.32,,47.59359,-54.27349
2019-01-20 09:00:00+00:00,345.0,347.0,4.15,6.06,,47.59359,-54.27349
2019-01-20 09:10:00+00:00,349.0,336.0,4.61,5.86,,47.59359,-54.27349
2019-01-20 09:20:00+00:00,332.0,329.0,4.82,5.98,,47.59359,-54.27349
2019-01-20 09:30:00+00:00,348.0,352.0,3.25,5.46,,47.59359,-54.27349
2019-01-20 09:40:00+00:00,328.0,318.0,2.93,3.98,,47.59359,-54.27349
2019-01-20 09:50:00+00:00,330.0,335.0,3.69,5.95,,47.59359,-54.27349
2019-01-20 10:00:00+00:00,323.0,331.0,3.86,5.91,,47.59359,-54.27349
2019-01-20 10:10:00+00:00,347.0,348.0,3.72,5.72,,47.59359,-54.27349
2019-01-20 10:20:00+00:00,322.0,331.0,4.12,6.24,,47.59359,-54.27349
2019-01-20 10:30:00+00:00,21.0,20.0,3.32,5.6,,47.59359,-54.27349
2019-01-20 10:40:00+00:00,339.0,341.0,3.12,5.18,,47.59359,-54.27349
2019-01-20 10:50:00+00:00,359.0,1.0,4.16,5.35,,47.59359,-54.27349
2019-01-20 11:00:00+00:00,1.0,347.0,4.07,5.27,,47.59359,-54.27349
2019-01-20 11:10:00+00:00,15.0,17.0,4.61,5.67,,47.59359,-54.27349
2019-01-20 11:20:00+00:00,11.0,12.0,4.94,5.84,,47.59359,-54.27349
2019-01-20 11:30:00+00:00,6.0,3.0,3.97,4.58,,47.59359,-54.27349
2019-01-20 11:40:00+00:00,5.0,13.0,3.45,5.47,,47.59359,-54.27349
2019-01-20 11:50:00+00:00,6.0,6.0,4.48,5.5,,47.59359,-54.27349
2019-01-20 12:00:00+00:00,28.0,30.0,2.33,3.02,,47.59359,-54.27349
2019-01-20 12:10:00+00:00,58.0,58.0,3.48,4.56,,47.59359,-54.27349
2019-01-20 12:20:00+00:00,10.0,14.0,4.5,5.22,,47.59359,-54.27349
2019-01-20 12:30:00+00:00,351.0,349.0,3.94,4.77,,47.59359,-54.27349
2019-01-20 12:40:00+00:00,34.0,49.0,3.69,4.63,,47.59359,-54.27349
2019-01-20 12:50:00+00:00,43.0,43.0,4.35,5.23,,47.59359,-54.27349
2019-01-20 13:00:00+00:00,50.0,54.0,5.52,6.9,,47.59359,-54.27349
2019-01-20 13:10:00+00:00,61.0,51.0,4.99,5.92,,47.59359,-54.27349
2019-01-20 13:20:00+00:00,27.0,25.0,4.21,5.43,,47.59359,-54.27349
2019-01-20 13:30:00+00:00,39.0,44.0,4.22,5.4,,47.59359,-54.27349
2019-01-20 13:40:00+00:00,54.0,49.0,4.92,6.03,,47.59359,-54.27349
2019-01-20 13:50:00+00:00,30.0,40.0,4.97,6.16,,47.59359,-54.27349
2019-01-20 14:00:00+00:00,21.0,27.0,4.18,5.78,,47.59359,-54.27349
2019-01-20 14:10:00+00:00,37.0,34.0,4.68,6.11,,47.59359,-54.27349
2019-01-20 14:20:00+00:00,55.0,57.0,4.42,5.74,,47.59359,-54.27349
2019-01-20 14:30:00+00:00,38.0,44.0,5.03,6.09,,47.59359,-54.27349
2019-01-20 14:40:00+00:00,36.0,35.0,5.08,6.03,,47.59359,-54.27349
2019-01-20 14:50:00+00:00,70.0,80.0,4.34,5.3,,47.59359,-54.27349
2019-01-20 15:00:00+00:00,49.0,52.0,4.19,5.14,,47.59359,-54.27349
2019-01-20 15:10:00+00:00,51.0,52.0,4.25,5.35,,47.59359,-54.27349
2019-01-20 15:20:00+00:00,65.0,71.0,3.23,4.42,,47.59359,-54.27349
2019-01-20 15:30:00+00:00,56.0,61.0,3.84,5.28,,47.59359,-54.27349
2019-01-20 15:40:00+00:00,88.0,85.0,4.88,5.62,,47.59359,-54.27349
2019-01-20 15:50:00+00:00,78.0,75.0,3.99,5.72,,47.59359,-54.27349
2019-01-20 16:00:00+00:00,66.0,64.0,5.34,6.03,,47.59359,-54.27349
2019-01-20 16:10:00+00:00,35.0,34.0,5.34,6.45,,47.59359,-54.27349
2019-01-20 16:20:00+00:00,50.0,46.0,5.45,6.89,,47.59359,-54.27349
2019-01-20 16:30:00+00:00,64.0,60.0,3.02,3.87,,47.59359,-54.27349
2019-01-20 16:40:00+00:00,68.0,70.0,5.18,5.72,,47.59359,-54.27349
2019-01-20 16:50:00+00:00,82.0,82.0,6.67,7.61,,47.59359,-54.27349
2019-01-20 17:00:00+00:00,81.0,76.0,5.76,8.25,,47.59359,-54.27349
2019-01-20 17:10:00+00:00,85.0,83.0,4.93,6.27,,47.59359,-54.27349
2019-01-20 17:20:00+00:00,76.0,65.0,2.86,4.41,,47.59359,-54.27349
2019-01-20 17:30:00+00:00,68.0,71.0,4.28,6.2,,47.59359,-54.27349
2019-01-20 17:40:00+00:00,90.0,87.0,3.81,5.79,,47.59359,-54.27349
2019-01-20 17:50:00+00:00,96.0,95.0,3.35,4.92,,47.59359,-54.27349
2019-01-20 18:00:00+00:00,120.0,126.0,2.93,4.83,,47.59359,-54.27349
2019-01-20 18:10:00+00:00,118.0,108.0,3.17,5.06,,47.59359,-54.27349
2019-01-20 18:20:00+00:00,131.0,137.0,3.74,5.68,,47.59359,-54.27349
2019-01-20 18:30:00+00:00,89.0,80.0,4.14,5.08,,47.59359,-54.27349
2019-01-20 18:40:00+00:00,98.0,74.0,3.12,4.79,,47.59359,-54.27349
2019-01-20 18:50:00+00:00,120.0,129.0,3.74,6.62,,47.59359,-54.27349
2019-01-20 19:00:00+00:00,112.0,128.0,3.67,6.08,,47.59359,-54.27349
2019-01-20 19:10:00+00:00,128.0,134.0,3.94,6.12,,47.59359,-54.27349
2019-01-20 19:20:00+00:00,93.0,64.0,3.15,5.87,,47.59359,-54.27349
2019-01-20 19:30:00+00:00,99.0,114.0,3.66,5.25,,47.59359,-54.27349
2019-01-20 19:40:00+00:00,107.0,121.0,4.19,5.57,,47.59359,-54.27349
2019-01-20 19:50:00+00:00,95.0,98.0,3.86,5.56,,47.59359,-54.27349
2019-01-20 20:00:00+00:00,113.0,128.0,3.55,4.89,,47.59359,-54.27349
2019-01-20 20:10:00+00:00,107.0,86.0,3.76,5.31,,47.59359,-54.27349
2019-01-20 20:20:00+00:00,102.0,113.0,4.1,6.85,,47.59359,-54.27349
2019-01-20 20:30:00+00:00,94.0,84.0,4.43,6.73,,47.59359,-54.27349
2019-01-20 20:40:00+00:00,98.0,105.0,4.81,6.3,,47.59359,-54.27349
2019-01-20 20:50:00+00:00,90.0,84.0,5.08,6.79,,47.59359,-54.27349
2019-01-20 21:00:00+00:00,101.0,98.0,5.36,7.43,,47.59359,-54.27349
2019-01-20 21:10:00+00:00,101.0,92.0,4.2,6.46,,47.59359,-54.27349
2019-01-20 21:20:00+00:00,92.0,110.0,4.66,7.32,,47.59359,-54.27349
2019-01-20 21:30:00+00:00,109.0,118.0,4.44,6.7,,47.59359,-54.27349
2019-01-20 21:40:00+00:00,114.0,139.0,4.64,6.67,,47.59359,-54.27349
2019-01-20 21:50:00+00:00,124.0,138.0,5.23,8.75,,47.59359,-54.27349
2019-01-20 22:00:00+00:00,127.0,133.0,6.5,10.0,,47.59359,-54.27349
2019-01-20 22:10:00+00:00,126.0,134.0,6.64,9.27,,47.59359,-54.27349
2019-01-20 22:20:00+00:00,134.0,137.0,7.16,8.61,,47.59359,-54.27349
2019-01-20 22:30:00+00:00,135.0,139.0,6.39,7.68,,47.59359,-54.27349
2019-01-20 22:40:00+00:00,126.0,134.0,6.23,9.59,,47.59359,-54.27349
2019-01-20 22:50:00+00:00,128.0,144.0,5.94,8.91,,47.59359,-54.27349
2019-01-20 23:00:00+00:00,118.0,115.0,4.01,7.69,,47.59359,-54.27349
2019-01-20 23:10:00+00:00,114.0,125.0,5.86,9.21,,47.59359,-54.27349
2019-01-20 23:20:00+00:00,126.0,136.0,5.52,8.88,,47.59359,-54.27349
2019-01-20 23:30:00+00:00,129.0,131.0,7.15,10.09,,47.59359,-54.27349
2019-01-20 23:40:00+00:00,129.0,132.0,6.73,8.65,,47.59359,-54.27349
2019-01-20 23:50:00+00:00,132.0,135.0,8.78,10.23,,47.59359,-54.27349
